ITY0040 MSLP-SVMI

Flight info

Callsign ITY0040
Flight time 2h 55m
Altitude 39000
Route TUKOR2E TUKOR UA317 MGA UP543 SPP UP671 UTKIV UW52 PBL DCT ALDAK ALDAK1
Aircraft A339/H-SADE1E2E3GHIJ3J5M1P2RWXY/LB2D1

Departure

Time 2026-04-14 10:50
Airport El Salvador International Airport Saint Óscar Arnulfo Romero y Galdámez (MSLP)

Arrival

Time 2026-04-14 13:45
Airport Maiquetía Simón Bolívar International Airport (SVMI)
Time Latitude Longitude Altitude Speed Heading
2026-04-14 10:32 13.44077 -89.06585 90 ft 0 kts 340°
2026-04-14 10:43 13.44071 -89.06583 90 ft 4 kts 340°
2026-04-14 10:43 13.44049 -89.06576 90 ft 4 kts 328°
2026-04-14 10:43 13.44031 -89.06564 91 ft 4 kts 283°
2026-04-14 10:44 13.44029 -89.06541 91 ft 4 kts 252°
2026-04-14 10:44 13.44036 -89.06520 91 ft 1 kts 248°
2026-04-14 10:44 13.44038 -89.06516 91 ft 0 kts 248°
2026-04-14 10:46 13.44036 -89.06520 91 ft 2 kts 248°
2026-04-14 10:46 13.44021 -89.06535 92 ft 2 kts 211°
2026-04-14 10:47 13.43995 -89.06539 93 ft 5 kts 188°
2026-04-14 10:47 13.43956 -89.06554 94 ft 7 kts 207°
2026-04-14 10:47 13.43923 -89.06598 91 ft 9 kts 242°
2026-04-14 10:47 13.43890 -89.06669 93 ft 13 kts 247°
2026-04-14 10:48 13.43856 -89.06762 88 ft 15 kts 250°
2026-04-14 10:48 13.43817 -89.06871 89 ft 17 kts 250°
2026-04-14 10:48 13.43758 -89.06981 86 ft 18 kts 214°
2026-04-14 10:48 13.43641 -89.06952 86 ft 18 kts 133°
2026-04-14 10:49 13.43634 -89.06876 88 ft 0 kts 76°
2026-04-14 10:49 13.43654 -89.06806 88 ft 41 kts 72°
2026-04-14 10:49 13.43863 -89.06233 94 ft 127 kts 70°
2026-04-14 10:50 13.44234 -89.05184 215 ft 179 kts 69°
2026-04-14 10:50 13.44669 -89.03999 1030 ft 181 kts 68°
2026-04-14 10:50 13.45147 -89.02767 1743 ft 189 kts 65°
2026-04-14 10:50 13.45650 -89.01447 2356 ft 205 kts 68°
2026-04-14 10:51 13.46107 -89.00009 2786 ft 225 kts 74°
2026-04-14 10:51 13.46330 -88.98347 3138 ft 247 kts 86°
2026-04-14 10:51 13.46193 -88.96522 3537 ft 264 kts 99°
2026-04-14 10:51 13.45642 -88.94703 4167 ft 269 kts 112°
2026-04-14 10:52 13.44775 -88.93004 4897 ft 270 kts 117°
2026-04-14 10:52 13.43864 -88.91299 5563 ft 273 kts 117°
2026-04-14 10:52 13.42959 -88.89569 6212 ft 276 kts 116°
2026-04-14 10:52 13.42057 -88.87814 6849 ft 279 kts 116°
2026-04-14 10:53 13.41347 -88.86420 7353 ft 281 kts 116°
2026-04-14 10:53 13.40441 -88.84635 8004 ft 283 kts 116°
2026-04-14 10:53 13.39530 -88.82841 8650 ft 285 kts 116°
2026-04-14 10:53 13.38609 -88.81026 9295 ft 287 kts 116°
2026-04-14 10:54 13.37682 -88.79202 9936 ft 289 kts 116°
2026-04-14 10:54 13.36739 -88.77347 10316 ft 301 kts 116°
2026-04-14 10:54 13.35742 -88.75384 10474 ft 319 kts 116°
2026-04-14 10:54 13.34685 -88.73307 10641 ft 336 kts 116°
2026-04-14 10:55 13.33586 -88.71155 11064 ft 342 kts 116°
2026-04-14 10:55 13.32476 -88.68981 11584 ft 346 kts 116°
2026-04-14 10:55 13.31354 -88.66782 12092 ft 349 kts 117°
2026-04-14 10:55 13.30222 -88.64563 12606 ft 353 kts 117°
2026-04-14 10:56 13.29091 -88.62349 13112 ft 356 kts 117°
2026-04-14 10:56 13.27937 -88.60088 13605 ft 360 kts 117°
2026-04-14 10:56 13.26770 -88.57802 14083 ft 363 kts 117°
2026-04-14 10:56 13.25594 -88.55500 14541 ft 365 kts 117°
2026-04-14 10:57 13.24809 -88.53965 14841 ft 367 kts 117°
2026-04-14 10:57 13.23621 -88.51641 15294 ft 370 kts 117°
2026-04-14 10:57 13.22420 -88.49293 15742 ft 372 kts 117°
2026-04-14 10:57 13.21212 -88.46930 16180 ft 375 kts 117°
2026-04-14 10:58 13.19993 -88.44547 16598 ft 379 kts 117°
2026-04-14 10:58 13.18763 -88.42144 17010 ft 382 kts 118°
2026-04-14 10:58 13.17523 -88.39723 17432 ft 385 kts 118°
2026-04-14 10:58 13.16274 -88.37283 17858 ft 388 kts 118°
2026-04-14 10:59 13.15011 -88.34819 18236 ft 391 kts 118°
2026-04-14 10:59 13.13744 -88.32346 18608 ft 393 kts 118°
2026-04-14 10:59 13.12467 -88.29854 19019 ft 395 kts 118°
2026-04-14 10:59 13.11184 -88.27354 19407 ft 397 kts 118°
2026-04-14 11:00 13.09894 -88.24839 19802 ft 399 kts 118°
2026-04-14 11:00 13.08601 -88.22320 20202 ft 401 kts 118°
2026-04-14 11:00 13.07297 -88.19781 20593 ft 403 kts 118°
2026-04-14 11:00 13.05992 -88.17239 20981 ft 405 kts 118°
2026-04-14 11:01 13.04677 -88.14679 21380 ft 407 kts 118°
2026-04-14 11:01 13.03351 -88.12100 21782 ft 409 kts 118°
2026-04-14 11:01 13.02018 -88.09507 22181 ft 411 kts 117°
2026-04-14 11:01 13.00681 -88.06906 22559 ft 414 kts 117°
2026-04-14 11:02 12.99334 -88.04288 22939 ft 416 kts 117°
2026-04-14 11:02 12.97996 -88.01688 23352 ft 418 kts 117°
2026-04-14 11:02 12.96638 -87.99048 23681 ft 421 kts 117°
2026-04-14 11:02 12.95266 -87.96383 23988 ft 424 kts 117°
2026-04-14 11:03 12.93886 -87.93702 24285 ft 427 kts 117°
2026-04-14 11:03 12.92496 -87.91002 24589 ft 429 kts 117°
2026-04-14 11:03 12.91096 -87.88286 24893 ft 433 kts 117°
2026-04-14 11:03 12.89684 -87.85548 25184 ft 436 kts 117°
2026-04-14 11:04 12.88263 -87.82793 25484 ft 439 kts 117°
2026-04-14 11:04 12.86917 -87.79976 25770 ft 441 kts 114°
2026-04-14 11:04 12.85646 -87.77104 26055 ft 444 kts 114°
2026-04-14 11:04 12.84363 -87.74208 26361 ft 447 kts 114°
2026-04-14 11:05 12.83067 -87.71292 26659 ft 450 kts 114°
2026-04-14 11:05 12.81766 -87.68368 26978 ft 453 kts 114°
2026-04-14 11:05 12.80452 -87.65422 27302 ft 455 kts 114°
2026-04-14 11:05 12.79136 -87.62474 27613 ft 457 kts 114°
2026-04-14 11:06 12.77807 -87.59496 27917 ft 459 kts 114°
2026-04-14 11:06 12.76490 -87.56546 28201 ft 462 kts 114°
2026-04-14 11:06 12.75152 -87.53551 28512 ft 464 kts 114°
2026-04-14 11:06 12.73806 -87.50538 28794 ft 467 kts 114°
2026-04-14 11:07 12.72450 -87.47505 29088 ft 470 kts 114°
2026-04-14 11:07 12.71085 -87.44454 29365 ft 472 kts 114°
2026-04-14 11:07 12.69713 -87.41385 29655 ft 475 kts 114°
2026-04-14 11:07 12.68333 -87.38303 29949 ft 478 kts 114°
2026-04-14 11:08 12.66945 -87.35203 30225 ft 480 kts 114°
2026-04-14 11:08 12.65547 -87.32081 30530 ft 482 kts 114°
2026-04-14 11:08 12.64144 -87.28948 30815 ft 483 kts 114°
2026-04-14 11:08 12.62738 -87.25811 31115 ft 485 kts 114°
2026-04-14 11:09 12.61329 -87.22669 31410 ft 487 kts 114°
2026-04-14 11:09 12.59912 -87.19509 31699 ft 489 kts 114°
2026-04-14 11:09 12.58485 -87.16329 31984 ft 491 kts 114°
2026-04-14 11:10 12.55621 -87.09949 32516 ft 495 kts 115°
2026-04-14 11:10 12.54180 -87.06737 32740 ft 496 kts 115°
2026-04-14 11:10 12.52738 -87.03517 32931 ft 498 kts 115°
2026-04-14 11:10 12.51292 -87.00289 33104 ft 499 kts 115°
2026-04-14 11:11 12.49844 -86.97058 33261 ft 500 kts 115°
2026-04-14 11:11 12.48390 -86.93816 33412 ft 501 kts 115°
2026-04-14 11:11 12.46956 -86.90620 33588 ft 501 kts 115°
2026-04-14 11:11 12.45504 -86.87383 33763 ft 501 kts 115°
2026-04-14 11:12 12.44047 -86.84138 33950 ft 500 kts 115°
2026-04-14 11:12 12.42600 -86.80917 34123 ft 499 kts 115°
2026-04-14 11:12 12.41146 -86.77681 34308 ft 498 kts 116°
2026-04-14 11:12 12.39698 -86.74460 34469 ft 498 kts 116°
2026-04-14 11:13 12.38251 -86.71241 34648 ft 497 kts 116°
2026-04-14 11:13 12.36808 -86.68035 34827 ft 496 kts 116°
2026-04-14 11:13 12.35368 -86.64834 34992 ft 496 kts 116°
2026-04-14 11:13 12.33923 -86.61625 35179 ft 495 kts 116°
2026-04-14 11:14 12.32483 -86.58427 35365 ft 494 kts 116°
2026-04-14 11:14 12.31043 -86.55231 35560 ft 493 kts 116°
2026-04-14 11:14 12.29628 -86.52092 35774 ft 492 kts 116°
2026-04-14 11:14 12.28196 -86.48915 35962 ft 491 kts 116°
2026-04-14 11:15 12.26766 -86.45742 36183 ft 490 kts 116°
2026-04-14 11:15 12.25338 -86.42577 36400 ft 489 kts 116°
2026-04-14 11:15 12.23911 -86.39415 36620 ft 488 kts 116°
2026-04-14 11:15 12.22491 -86.36271 36836 ft 487 kts 116°
2026-04-14 11:16 12.21073 -86.33130 37059 ft 486 kts 116°
2026-04-14 11:16 12.19658 -86.29997 37273 ft 484 kts 116°
2026-04-14 11:16 12.18250 -86.26882 37496 ft 483 kts 117°
2026-04-14 11:16 12.16842 -86.23766 37717 ft 482 kts 117°
2026-04-14 11:17 12.15512 -86.20620 37898 ft 482 kts 111°
2026-04-14 11:17 12.14673 -86.17290 38090 ft 485 kts 101°
2026-04-14 11:17 12.14397 -86.13842 38097 ft 490 kts 90°
2026-04-14 11:17 12.14677 -86.10400 38222 ft 491 kts 84°
2026-04-14 11:18 12.15075 -86.06936 38372 ft 491 kts 84°
2026-04-14 11:18 12.15452 -86.03462 38533 ft 491 kts 84°
2026-04-14 11:18 12.15819 -85.99989 38680 ft 491 kts 85°
2026-04-14 11:18 12.16180 -85.96531 38813 ft 490 kts 85°
2026-04-14 11:19 12.16541 -85.93066 38956 ft 490 kts 85°
2026-04-14 11:19 12.16901 -85.89604 39013 ft 490 kts 85°
2026-04-14 11:19 12.17622 -85.82680 39023 ft 489 kts 85°
2026-04-14 11:20 12.18337 -85.75799 39025 ft 489 kts 85°
2026-04-14 11:20 12.19054 -85.68895 39032 ft 489 kts 85°
2026-04-14 11:21 12.19770 -85.61958 39035 ft 490 kts 85°
2026-04-14 11:21 12.20484 -85.55036 39039 ft 490 kts 85°
2026-04-14 11:22 12.21197 -85.48101 39051 ft 490 kts 85°
2026-04-14 11:22 12.21908 -85.41164 39051 ft 490 kts 85°
2026-04-14 11:23 12.22618 -85.34230 39055 ft 491 kts 85°
2026-04-14 11:23 12.23326 -85.27290 39067 ft 491 kts 85°
2026-04-14 11:24 12.24033 -85.20346 39068 ft 491 kts 85°
2026-04-14 11:24 12.24737 -85.13404 39064 ft 491 kts 85°
2026-04-14 11:25 12.25442 -85.06456 39075 ft 491 kts 85°
2026-04-14 11:25 12.26140 -84.99552 39071 ft 491 kts 85°
2026-04-14 11:26 12.26841 -84.92600 39073 ft 491 kts 85°
2026-04-14 11:26 12.27544 -84.85604 39075 ft 491 kts 85°
2026-04-14 11:27 12.28238 -84.78688 39079 ft 492 kts 85°
2026-04-14 11:27 12.28935 -84.71722 39074 ft 492 kts 85°
2026-04-14 11:28 12.29629 -84.64765 39077 ft 492 kts 85°
2026-04-14 11:28 12.30323 -84.57803 39080 ft 492 kts 85°
2026-04-14 11:29 12.31015 -84.50836 39076 ft 492 kts 85°
2026-04-14 11:29 12.31705 -84.43870 39077 ft 492 kts 85°
2026-04-14 11:30 12.32394 -84.36896 39078 ft 493 kts 85°
2026-04-14 11:30 12.33081 -84.29921 39074 ft 493 kts 85°
2026-04-14 11:31 12.33762 -84.22994 39077 ft 493 kts 85°
2026-04-14 11:31 12.34447 -84.16007 39078 ft 493 kts 85°
2026-04-14 11:32 12.35130 -84.09026 39074 ft 493 kts 85°
2026-04-14 11:32 12.35811 -84.02035 39076 ft 494 kts 85°
2026-04-14 11:33 12.36491 -83.95039 39079 ft 494 kts 85°
2026-04-14 11:34 12.37508 -83.84550 39076 ft 494 kts 85°
2026-04-14 11:34 12.38185 -83.77545 39077 ft 494 kts 85°
2026-04-14 11:35 12.38856 -83.70585 39071 ft 494 kts 85°
2026-04-14 11:35 12.39528 -83.63586 39069 ft 494 kts 85°
2026-04-14 11:36 12.40200 -83.56577 39073 ft 495 kts 85°
2026-04-14 11:36 12.40870 -83.49568 39069 ft 495 kts 85°
2026-04-14 11:37 12.41538 -83.42556 39068 ft 495 kts 85°
2026-04-14 11:37 12.42201 -83.35585 39068 ft 495 kts 85°
2026-04-14 11:38 12.42865 -83.28575 39066 ft 495 kts 86°
2026-04-14 11:38 12.43528 -83.21566 39062 ft 495 kts 86°
2026-04-14 11:39 12.44188 -83.14559 39059 ft 495 kts 86°
2026-04-14 11:39 12.44848 -83.07543 39067 ft 495 kts 86°
2026-04-14 11:40 12.45393 -83.01721 39066 ft 495 kts 86°
2026-04-14 11:40 12.46051 -82.94695 39060 ft 495 kts 86°
2026-04-14 11:41 12.46704 -82.87694 39057 ft 495 kts 86°
2026-04-14 11:41 12.47358 -82.80684 39058 ft 495 kts 86°
2026-04-14 11:42 12.48029 -82.73679 39059 ft 494 kts 85°
2026-04-14 11:42 12.48745 -82.66669 39058 ft 494 kts 85°
2026-04-14 11:43 12.49450 -82.59718 39060 ft 494 kts 85°
2026-04-14 11:43 12.50151 -82.52724 39062 ft 494 kts 85°
2026-04-14 11:44 12.50851 -82.45729 39059 ft 494 kts 85°
2026-04-14 11:44 12.51548 -82.38738 39055 ft 493 kts 85°
2026-04-14 11:45 12.52242 -82.31754 39056 ft 493 kts 85°
2026-04-14 11:45 12.52935 -82.24767 39055 ft 493 kts 85°
2026-04-14 11:46 12.53625 -82.17790 39051 ft 493 kts 85°
2026-04-14 11:46 12.54314 -82.10811 39054 ft 493 kts 85°
2026-04-14 11:47 12.55000 -82.03833 39052 ft 493 kts 85°
2026-04-14 11:47 12.55686 -81.96841 39047 ft 492 kts 85°
2026-04-14 11:48 12.56368 -81.89872 39038 ft 492 kts 85°
2026-04-14 11:48 12.57049 -81.82893 39035 ft 492 kts 85°
2026-04-14 11:49 12.57695 -81.75917 39031 ft 492 kts 88°
2026-04-14 11:49 12.57480 -81.68937 39031 ft 489 kts 99°
2026-04-14 11:50 12.56128 -81.62141 39030 ft 487 kts 107°
2026-04-14 11:50 12.54407 -81.55478 39036 ft 487 kts 107°
2026-04-14 11:51 12.51852 -81.45408 39044 ft 488 kts 107°
2026-04-14 11:51 12.50138 -81.38681 39047 ft 488 kts 107°
2026-04-14 11:52 12.48423 -81.31962 39050 ft 488 kts 107°
2026-04-14 11:52 12.46706 -81.25241 39048 ft 488 kts 107°
2026-04-14 11:53 12.44985 -81.18514 39049 ft 488 kts 107°
2026-04-14 11:53 12.43264 -81.11792 39046 ft 488 kts 107°
2026-04-14 11:54 12.41537 -81.05057 39044 ft 489 kts 107°
2026-04-14 11:54 12.39813 -80.98337 39043 ft 489 kts 107°
2026-04-14 11:55 12.38083 -80.91601 39042 ft 490 kts 107°
2026-04-14 11:55 12.36362 -80.84904 39040 ft 490 kts 107°
2026-04-14 11:56 12.34624 -80.78155 39047 ft 490 kts 107°
2026-04-14 11:56 12.32882 -80.71394 39044 ft 491 kts 107°
2026-04-14 11:57 12.31138 -80.64632 39044 ft 491 kts 107°
2026-04-14 11:57 12.29391 -80.57868 39043 ft 492 kts 107°
2026-04-14 11:58 12.27642 -80.51105 39047 ft 492 kts 107°
2026-04-14 11:58 12.25899 -80.44369 39048 ft 492 kts 107°
2026-04-14 11:59 12.24147 -80.37605 39045 ft 493 kts 107°
2026-04-14 11:59 12.22387 -80.30822 39044 ft 493 kts 107°
2026-04-14 12:00 12.20628 -80.24045 39040 ft 493 kts 107°
2026-04-14 12:00 12.18867 -80.17271 39040 ft 493 kts 107°
2026-04-14 12:01 12.17104 -80.10495 39043 ft 493 kts 107°
2026-04-14 12:01 12.15338 -80.03715 39040 ft 493 kts 107°
2026-04-14 12:02 12.13570 -79.96936 39041 ft 493 kts 107°
2026-04-14 12:02 12.11803 -79.90166 39040 ft 493 kts 107°
2026-04-14 12:03 12.10043 -79.83432 39038 ft 493 kts 107°
2026-04-14 12:03 12.08271 -79.76659 39040 ft 493 kts 107°
2026-04-14 12:04 12.06497 -79.69885 39040 ft 493 kts 107°
2026-04-14 12:04 12.04723 -79.63119 39035 ft 493 kts 107°
2026-04-14 12:05 12.02946 -79.56350 39034 ft 493 kts 107°
2026-04-14 12:05 12.01167 -79.49580 39037 ft 493 kts 107°
2026-04-14 12:06 11.99399 -79.42857 39037 ft 493 kts 107°
2026-04-14 12:06 11.97606 -79.36050 39032 ft 493 kts 108°
2026-04-14 12:07 11.95836 -79.29335 39036 ft 493 kts 108°
2026-04-14 12:07 11.94054 -79.22578 39034 ft 493 kts 108°
2026-04-14 12:08 11.92268 -79.15818 39038 ft 493 kts 108°
2026-04-14 12:08 11.90481 -79.09058 39030 ft 493 kts 108°
2026-04-14 12:09 11.88693 -79.02303 39033 ft 493 kts 108°
2026-04-14 12:09 11.86901 -78.95543 39031 ft 493 kts 108°
2026-04-14 12:10 11.85110 -78.88787 39029 ft 493 kts 108°
2026-04-14 12:10 11.83317 -78.82036 39029 ft 493 kts 108°
2026-04-14 12:11 11.81522 -78.75279 39034 ft 493 kts 108°
2026-04-14 12:11 11.79730 -78.68533 39036 ft 493 kts 107°
2026-04-14 12:12 11.77988 -78.61768 39029 ft 493 kts 107°
2026-04-14 12:12 11.76258 -78.55003 39028 ft 493 kts 107°
2026-04-14 12:13 11.74527 -78.48271 39030 ft 492 kts 107°
2026-04-14 12:13 11.72783 -78.41509 39030 ft 492 kts 107°
2026-04-14 12:14 11.71039 -78.34752 39027 ft 492 kts 107°
2026-04-14 12:14 11.69298 -78.28011 39024 ft 492 kts 107°
2026-04-14 12:15 11.67552 -78.21260 39025 ft 492 kts 107°
2026-04-14 12:15 11.65804 -78.14508 39026 ft 492 kts 107°
2026-04-14 12:16 11.64057 -78.07770 39022 ft 491 kts 107°
2026-04-14 12:16 11.62306 -78.01021 39026 ft 491 kts 107°
2026-04-14 12:17 11.60557 -77.94286 39026 ft 491 kts 107°
2026-04-14 12:17 11.58807 -77.87551 39022 ft 491 kts 107°
2026-04-14 12:18 11.57053 -77.80812 39024 ft 491 kts 107°
2026-04-14 12:18 11.55310 -77.74120 39022 ft 491 kts 107°
2026-04-14 12:19 11.53555 -77.67389 39017 ft 491 kts 107°
2026-04-14 12:19 11.51795 -77.60645 39022 ft 491 kts 107°
2026-04-14 12:20 11.50032 -77.53900 39019 ft 492 kts 107°
2026-04-14 12:20 11.48270 -77.47161 39021 ft 492 kts 107°
2026-04-14 12:21 11.46620 -77.40392 39016 ft 493 kts 102°
2026-04-14 12:21 11.45569 -77.33484 39015 ft 493 kts 100°
2026-04-14 12:22 11.44689 -77.27737 39015 ft 493 kts 100°
2026-04-14 12:22 11.43624 -77.20833 39012 ft 494 kts 100°
2026-04-14 12:23 11.42555 -77.13915 39016 ft 494 kts 100°
2026-04-14 12:23 11.41312 -77.05883 39015 ft 494 kts 100°
2026-04-14 12:24 11.40413 -77.00087 39014 ft 494 kts 100°
2026-04-14 12:24 11.39339 -76.93169 39018 ft 494 kts 100°
2026-04-14 12:25 11.38265 -76.86261 39016 ft 494 kts 100°
2026-04-14 12:25 11.37187 -76.79345 39015 ft 494 kts 100°
2026-04-14 12:26 11.36109 -76.72434 39012 ft 494 kts 100°
2026-04-14 12:26 11.35036 -76.65565 39013 ft 494 kts 100°
2026-04-14 12:27 11.33955 -76.58659 39012 ft 494 kts 100°
2026-04-14 12:27 11.32871 -76.51743 39011 ft 494 kts 100°
2026-04-14 12:28 11.31785 -76.44821 39013 ft 494 kts 100°
2026-04-14 12:28 11.30699 -76.37911 39008 ft 494 kts 100°
2026-04-14 12:29 11.29610 -76.30997 39005 ft 494 kts 100°
2026-04-14 12:29 11.28519 -76.24080 39008 ft 495 kts 100°
2026-04-14 12:30 11.27424 -76.17147 39007 ft 495 kts 100°
2026-04-14 12:30 11.26328 -76.10225 39009 ft 495 kts 100°
2026-04-14 12:31 11.25236 -76.03334 39008 ft 496 kts 100°
2026-04-14 12:31 11.24134 -75.96389 39004 ft 496 kts 100°
2026-04-14 12:32 11.23032 -75.89457 39004 ft 496 kts 100°
2026-04-14 12:32 11.21926 -75.82508 39006 ft 497 kts 100°
2026-04-14 12:33 11.20817 -75.75552 39005 ft 497 kts 100°
2026-04-14 12:33 11.19706 -75.68593 39002 ft 497 kts 100°
2026-04-14 12:34 11.18594 -75.61638 39002 ft 498 kts 100°
2026-04-14 12:34 11.17486 -75.54719 38998 ft 498 kts 100°
2026-04-14 12:35 11.16369 -75.47754 39001 ft 498 kts 100°
2026-04-14 12:35 11.15250 -75.40786 38997 ft 498 kts 100°
2026-04-14 12:36 11.14129 -75.33820 38997 ft 498 kts 100°
2026-04-14 12:36 11.13007 -75.26857 39001 ft 498 kts 100°
2026-04-14 12:37 11.11884 -75.19900 39006 ft 498 kts 100°
2026-04-14 12:37 11.10760 -75.12943 39005 ft 498 kts 100°
2026-04-14 12:38 11.09072 -75.02513 38996 ft 497 kts 100°
2026-04-14 12:39 11.07944 -74.95564 38995 ft 497 kts 100°
2026-04-14 12:39 11.06817 -74.88627 38989 ft 496 kts 100°
2026-04-14 12:40 11.05689 -74.81693 38987 ft 496 kts 100°
2026-04-14 12:40 11.04560 -74.74766 38983 ft 496 kts 100°
2026-04-14 12:41 11.03430 -74.67838 38984 ft 496 kts 100°
2026-04-14 12:41 11.02298 -74.60907 38984 ft 496 kts 100°
2026-04-14 12:42 11.01163 -74.53978 38988 ft 496 kts 100°
2026-04-14 12:42 11.00027 -74.47045 38986 ft 497 kts 100°
2026-04-14 12:43 10.98895 -74.40147 38985 ft 497 kts 100°
2026-04-14 12:43 10.97755 -74.33209 38980 ft 497 kts 100°
2026-04-14 12:44 10.96613 -74.26263 38987 ft 498 kts 100°
2026-04-14 12:44 10.95530 -74.19301 38992 ft 498 kts 98°
2026-04-14 12:45 10.94108 -74.08815 39017 ft 499 kts 98°
2026-04-14 12:45 10.93135 -74.01818 39043 ft 499 kts 99°
2026-04-14 12:46 10.92151 -73.94812 39087 ft 500 kts 99°
2026-04-14 12:46 10.91163 -73.87800 39112 ft 500 kts 99°
2026-04-14 12:47 10.90177 -73.80836 39139 ft 502 kts 99°
2026-04-14 12:47 10.89187 -73.73821 39141 ft 500 kts 99°
2026-04-14 12:48 10.88196 -73.66803 39144 ft 502 kts 99°
2026-04-14 12:48 10.87196 -73.59767 39152 ft 501 kts 99°
2026-04-14 12:49 10.86203 -73.52744 39144 ft 501 kts 99°
2026-04-14 12:49 10.85206 -73.45720 39139 ft 502 kts 99°
2026-04-14 12:50 10.83704 -73.35177 39121 ft 502 kts 99°
2026-04-14 12:51 10.82706 -73.28196 39112 ft 502 kts 99°
2026-04-14 12:51 10.81701 -73.21174 39101 ft 501 kts 99°
2026-04-14 12:52 10.80696 -73.14158 39086 ft 501 kts 99°
2026-04-14 12:52 10.79689 -73.07135 39079 ft 501 kts 100°
2026-04-14 12:53 10.78683 -73.00133 39076 ft 500 kts 100°
2026-04-14 12:53 10.77675 -72.93132 39076 ft 500 kts 100°
2026-04-14 12:54 10.76663 -72.86117 39075 ft 500 kts 100°
2026-04-14 12:54 10.75661 -72.79181 39079 ft 499 kts 100°
2026-04-14 12:55 10.74650 -72.72188 39084 ft 499 kts 100°
2026-04-14 12:55 10.74124 -72.65152 39084 ft 499 kts 92°
2026-04-14 12:56 10.73929 -72.58097 39074 ft 499 kts 93°
2026-04-14 12:56 10.73713 -72.51043 39069 ft 499 kts 93°
2026-04-14 12:57 10.73492 -72.43980 39065 ft 499 kts 93°
2026-04-14 12:57 10.73270 -72.36931 39062 ft 499 kts 93°
2026-04-14 12:58 10.73048 -72.29882 39053 ft 499 kts 93°
2026-04-14 12:58 10.72826 -72.22867 39048 ft 499 kts 93°
2026-04-14 12:59 10.72601 -72.15819 39041 ft 499 kts 93°
2026-04-14 12:59 10.72373 -72.08758 39032 ft 499 kts 93°
2026-04-14 13:00 10.72144 -72.01704 39030 ft 499 kts 93°
2026-04-14 13:00 10.71914 -71.94652 39032 ft 499 kts 93°
2026-04-14 13:01 10.71682 -71.87592 39044 ft 500 kts 93°
2026-04-14 13:01 10.71450 -71.80583 39047 ft 500 kts 93°
2026-04-14 13:02 10.71213 -71.73498 39051 ft 500 kts 93°
2026-04-14 13:02 10.70975 -71.66417 39052 ft 500 kts 93°
2026-04-14 13:03 10.70736 -71.59340 39045 ft 500 kts 93°
2026-04-14 13:03 10.70496 -71.52260 39037 ft 500 kts 93°
2026-04-14 13:04 10.70255 -71.45231 39025 ft 501 kts 93°
2026-04-14 13:04 10.70011 -71.38147 39023 ft 501 kts 93°
2026-04-14 13:05 10.69765 -71.31068 39023 ft 502 kts 93°
2026-04-14 13:05 10.69517 -71.23961 39025 ft 502 kts 93°
2026-04-14 13:06 10.69268 -71.16865 39020 ft 502 kts 93°
2026-04-14 13:06 10.69059 -71.10963 39023 ft 502 kts 93°
2026-04-14 13:07 10.68807 -71.03867 39028 ft 502 kts 93°
2026-04-14 13:07 10.68416 -70.96775 39026 ft 502 kts 95°
2026-04-14 13:08 10.67948 -70.89694 39034 ft 502 kts 95°
2026-04-14 13:08 10.67505 -70.82619 39045 ft 501 kts 95°
2026-04-14 13:09 10.67072 -70.75583 39049 ft 501 kts 95°
2026-04-14 13:09 10.66637 -70.68507 39050 ft 501 kts 95°
2026-04-14 13:10 10.66200 -70.61440 39057 ft 501 kts 95°
2026-04-14 13:10 10.65762 -70.54366 39058 ft 501 kts 95°
2026-04-14 13:11 10.65321 -70.47293 39057 ft 501 kts 95°
2026-04-14 13:11 10.64880 -70.40234 39059 ft 500 kts 95°
2026-04-14 13:12 10.64426 -70.33182 39061 ft 500 kts 95°
2026-04-14 13:12 10.63965 -70.26164 39062 ft 499 kts 95°
2026-04-14 13:13 10.63503 -70.19125 39067 ft 499 kts 95°
2026-04-14 13:13 10.63040 -70.12087 39069 ft 499 kts 95°
2026-04-14 13:14 10.62578 -70.05058 39067 ft 498 kts 95°
2026-04-14 13:14 10.62113 -69.98014 39071 ft 498 kts 95°
2026-04-14 13:15 10.61644 -69.90978 39069 ft 499 kts 95°
2026-04-14 13:15 10.61175 -69.83943 39066 ft 499 kts 95°
2026-04-14 13:16 10.60704 -69.76908 39072 ft 499 kts 95°
2026-04-14 13:16 10.60230 -69.69858 39073 ft 499 kts 95°
2026-04-14 13:17 10.59695 -69.62822 39074 ft 499 kts 96°
2026-04-14 13:17 10.59134 -69.55831 39076 ft 500 kts 96°
2026-04-14 13:18 10.58579 -69.48794 39077 ft 500 kts 96°
2026-04-14 13:18 10.58023 -69.41725 39076 ft 501 kts 96°
2026-04-14 13:19 10.57467 -69.34661 39078 ft 501 kts 96°
2026-04-14 13:19 10.56909 -69.27593 39076 ft 502 kts 96°
2026-04-14 13:20 10.56349 -69.20520 39079 ft 502 kts 96°
2026-04-14 13:20 10.55787 -69.13444 39079 ft 502 kts 96°
2026-04-14 13:20 10.55506 -69.09913 38948 ft 501 kts 95°
2026-04-14 13:21 10.55225 -69.06384 38408 ft 502 kts 95°
2026-04-14 13:21 10.54941 -69.02843 37513 ft 505 kts 95°
2026-04-14 13:21 10.54653 -68.99261 36471 ft 510 kts 95°
2026-04-14 13:21 10.54360 -68.95642 35207 ft 516 kts 95°
2026-04-14 13:22 10.54084 -68.91983 33923 ft 521 kts 94°
2026-04-14 13:22 10.53841 -68.88297 32493 ft 524 kts 93°
2026-04-14 13:22 10.53608 -68.84599 31098 ft 526 kts 93°
2026-04-14 13:22 10.53371 -68.80882 29905 ft 525 kts 93°
2026-04-14 13:23 10.53129 -68.77193 28920 ft 519 kts 94°
2026-04-14 13:23 10.52887 -68.73562 28255 ft 512 kts 94°
2026-04-14 13:23 10.52648 -68.69988 27857 ft 499 kts 94°
2026-04-14 13:23 10.52415 -68.66517 27603 ft 486 kts 94°
2026-04-14 13:24 10.52185 -68.63105 27019 ft 483 kts 94°
2026-04-14 13:24 10.51729 -68.56358 25772 ft 476 kts 94°
2026-04-14 13:24 10.51502 -68.53009 25150 ft 475 kts 94°
2026-04-14 13:25 10.51277 -68.49676 24535 ft 471 kts 93°
2026-04-14 13:25 10.51053 -68.46368 23934 ft 467 kts 93°
2026-04-14 13:26 10.50393 -68.36634 22109 ft 450 kts 94°
2026-04-14 13:26 10.50180 -68.33493 21522 ft 443 kts 94°
2026-04-14 13:26 10.49968 -68.30386 20920 ft 438 kts 94°
2026-04-14 13:26 10.49758 -68.27309 20346 ft 432 kts 94°
2026-04-14 13:27 10.49551 -68.24281 19733 ft 427 kts 94°
2026-04-14 13:27 10.49347 -68.21298 19161 ft 421 kts 94°
2026-04-14 13:27 10.49146 -68.18364 18613 ft 415 kts 94°
2026-04-14 13:27 10.48947 -68.15444 18012 ft 413 kts 95°
2026-04-14 13:28 10.48747 -68.12540 17471 ft 407 kts 95°
2026-04-14 13:28 10.48579 -68.09710 16935 ft 398 kts 92°
2026-04-14 13:28 10.48718 -68.06948 16393 ft 393 kts 83°
2026-04-14 13:28 10.49227 -68.04241 15855 ft 386 kts 76°
2026-04-14 13:29 10.49879 -68.01623 15327 ft 378 kts 76°
2026-04-14 13:29 10.50502 -67.99053 14819 ft 371 kts 76°
2026-04-14 13:29 10.51106 -67.96518 14284 ft 366 kts 77°
2026-04-14 13:29 10.51694 -67.94033 13764 ft 361 kts 77°
2026-04-14 13:30 10.52295 -67.91487 13259 ft 380 kts 77°
2026-04-14 13:30 10.52920 -67.88841 12724 ft 388 kts 77°
2026-04-14 13:30 10.53548 -67.86186 12239 ft 383 kts 77°
2026-04-14 13:30 10.54162 -67.83590 11728 ft 373 kts 77°
2026-04-14 13:31 10.54760 -67.81062 11222 ft 362 kts 77°
2026-04-14 13:31 10.55341 -67.78605 10730 ft 352 kts 77°
2026-04-14 13:31 10.55905 -67.76216 10329 ft 340 kts 77°
2026-04-14 13:31 10.56452 -67.73901 10237 ft 342 kts 77°
2026-04-14 13:32 10.56992 -67.71613 10116 ft 320 kts 77°
2026-04-14 13:32 10.57490 -67.69502 9959 ft 294 kts 77°
2026-04-14 13:32 10.57953 -67.67539 9584 ft 277 kts 77°
2026-04-14 13:32 10.58237 -67.65662 9207 ft 262 kts 88°
2026-04-14 13:33 10.58280 -67.63858 8847 ft 251 kts 90°
2026-04-14 13:33 10.58322 -67.62100 8479 ft 247 kts 89°
2026-04-14 13:33 10.58375 -67.60363 8106 ft 244 kts 89°
2026-04-14 13:33 10.58433 -67.58650 7742 ft 241 kts 89°
2026-04-14 13:34 10.58552 -67.55286 7032 ft 236 kts 89°
2026-04-14 13:34 10.58605 -67.53800 6726 ft 234 kts 89°
2026-04-14 13:34 10.58662 -67.52149 6375 ft 232 kts 89°
2026-04-14 13:35 10.58719 -67.50522 6039 ft 229 kts 89°
2026-04-14 13:35 10.58773 -67.48916 5706 ft 227 kts 89°
2026-04-14 13:35 10.58826 -67.47316 5390 ft 225 kts 88°
2026-04-14 13:35 10.58880 -67.45731 5076 ft 223 kts 88°
2026-04-14 13:36 10.58934 -67.44157 4762 ft 222 kts 88°
2026-04-14 13:36 10.58987 -67.42591 4451 ft 221 kts 88°
2026-04-14 13:36 10.59041 -67.41037 4176 ft 217 kts 88°
2026-04-14 13:36 10.59093 -67.39545 4088 ft 214 kts 88°
2026-04-14 13:37 10.59145 -67.38021 4046 ft 215 kts 88°
2026-04-14 13:37 10.59197 -67.36511 4038 ft 215 kts 88°
2026-04-14 13:37 10.59249 -67.34994 4040 ft 215 kts 88°
2026-04-14 13:37 10.59301 -67.33492 4024 ft 207 kts 88°
2026-04-14 13:38 10.59380 -67.32084 4031 ft 192 kts 86°
2026-04-14 13:38 10.59434 -67.30720 4042 ft 196 kts 88°
2026-04-14 13:38 10.59474 -67.29345 4041 ft 193 kts 88°
2026-04-14 13:38 10.59519 -67.27979 4031 ft 193 kts 88°
2026-04-14 13:39 10.59561 -67.26634 4048 ft 184 kts 88°
2026-04-14 13:39 10.59601 -67.25394 4069 ft 167 kts 88°
2026-04-14 13:39 10.59639 -67.24182 4155 ft 175 kts 88°
2026-04-14 13:39 10.59676 -67.22997 4203 ft 162 kts 88°
2026-04-14 13:40 10.59712 -67.21895 4143 ft 152 kts 88°
2026-04-14 13:40 10.59748 -67.20820 4044 ft 150 kts 89°
2026-04-14 13:40 10.59782 -67.19756 3900 ft 152 kts 88°
2026-04-14 13:40 10.59816 -67.18698 3743 ft 151 kts 88°
2026-04-14 13:41 10.59849 -67.17621 3557 ft 152 kts 89°
2026-04-14 13:41 10.59882 -67.16559 3368 ft 149 kts 88°
2026-04-14 13:41 10.59917 -67.15499 3169 ft 147 kts 88°
2026-04-14 13:41 10.59950 -67.14488 2988 ft 148 kts 88°
2026-04-14 13:42 10.59984 -67.13455 2785 ft 142 kts 88°
2026-04-14 13:42 10.60017 -67.12422 2615 ft 147 kts 88°
2026-04-14 13:42 10.60050 -67.11407 2442 ft 147 kts 88°
2026-04-14 13:42 10.60083 -67.10356 2241 ft 145 kts 88°
2026-04-14 13:43 10.60117 -67.09306 2057 ft 151 kts 87°
2026-04-14 13:43 10.60151 -67.08265 1863 ft 150 kts 87°
2026-04-14 13:43 10.60184 -67.07221 1661 ft 145 kts 88°
2026-04-14 13:43 10.60217 -67.06175 1464 ft 149 kts 87°
2026-04-14 13:44 10.60250 -67.05151 1274 ft 146 kts 88°
2026-04-14 13:44 10.60284 -67.04121 1071 ft 141 kts 88°
2026-04-14 13:44 10.60316 -67.03110 885 ft 146 kts 88°
2026-04-14 13:44 10.60347 -67.02116 681 ft 137 kts 88°
2026-04-14 13:45 10.60373 -67.01132 298 ft 139 kts 88°
2026-04-14 13:45 10.60397 -67.00253 217 ft 81 kts 86°
2026-04-14 13:45 10.60419 -66.99887 205 ft 29 kts 89°
2026-04-14 13:45 10.60416 -66.99757 198 ft 17 kts 99°
2026-04-14 13:46 10.60321 -66.99683 197 ft 19 kts 174°
2026-04-14 13:46 10.60271 -66.99737 209 ft 6 kts 257°
2026-04-14 13:46 10.60262 -66.99778 200 ft 6 kts 257°
2026-04-14 13:46 10.60250 -66.99844 207 ft 11 kts 259°
2026-04-14 13:47 10.60214 -66.99908 209 ft 10 kts 216°
2026-04-14 13:47 10.60156 -66.99922 208 ft 9 kts 187°
2026-04-14 13:47 10.60092 -66.99924 214 ft 11 kts 179°
2026-04-14 13:47 10.60027 -66.99975 216 ft 9 kts 246°
2026-04-14 13:48 10.59981 -67.00018 215 ft 11 kts 182°
2026-04-14 13:48 10.59929 -67.00020 217 ft 10 kts 184°
2026-04-14 13:48 10.59892 -67.00020 213 ft 1 kts 180°
2026-04-14 13:48 10.59865 -67.00019 215 ft 9 kts 178°
2026-04-14 13:49 10.59854 -67.00019 217 ft 0 kts 178°
2026-04-14 13:56 10.59846 -67.00015 224 ft 0 kts 122°
2026-04-14 13:57 10.59837 -67.00194 219 ft 0 kts 227°